Location: Christianberg
(48.9086°N, 14.0209°E)
Time: 03:55:44
(UTC+00:00)

FENGYUN 1C DEB - Pass Details

Date: 07 February 2022
Orbit: 832 x 1169 km, 98.6° (Epoch: 26 May)

Event Time Altitude Azimuth Distance (km) Brightness Sun altitude
Rises 02:25:01 0° 138° (SE) 3,372 ? -39.3°
Enters shadow 02:25:50 - 136° (SE) 3,058 ? -39.2°
Exits shadow 02:38:03 - 356° (N) 2,740 ? -37.4°
Sets 02:40:02 0° 351° (N) 3,498 ? -37.1°
